| time (UTC) | temp F | wind direction | speed MPH | gust MPH | rain 1hr in | rain 24hr in | rain mn in | humidity % | barometer mb |
| 20260903141449 | 84 | 67 | 12.0 | 19.0 | 0.00 | 0.00 | 0.00 | 7 | 1016.1 |
| 20260903141400 | 84 | 67 | 12.0 | 19.0 | 0.00 | 0.00 | 0.00 | 7 | 1016.3 |
| 20260903141010 | 84 | 90 | 12.0 | 17.0 | 0.00 | 0.00 | 0.00 | 7 | 1016.4 |
| 20260903140527 | 85 | 67 | 15.0 | 22.0 | 0.00 | 0.00 | 0.00 | 7 | 1016.2 |
| 20260903140110 | 85 | 67 | 13.0 | 22.0 | 0.00 | 0.00 | 0.00 | 7 | 1016.1 |
| 20260903135701 | 85 | 112 | 11.0 | 17.0 | 0.00 | 0.00 | 0.00 | 7 | 1016.2 |
| 20260903135439 | 85 | 90 | 15.0 | 19.0 | 0.00 | 0.00 | 0.00 | 7 | 1016.3 |
| 20260903135013 | 85 | 90 | 12.0 | 15.0 | 0.00 | 0.00 | 0.00 | 7 | 1016.3 |
| 20260903134526 | 86 | 45 | 11.0 | 15.0 | 0.00 | 0.00 | 0.00 | 7 | 1016.4 |
| 20260903134100 | 86 | 90 | 12.0 | 17.0 | 0.00 | 0.00 | 0.00 | 7 | 1016.3 |
| 20260903133610 | 87 | 90 | 8.0 | 15.0 | 0.00 | 0.00 | 0.00 | 7 | 1016.4 |
| 20260903133142 | 86 | 45 | 10.0 | 15.0 | 0.00 | 0.00 | 0.00 | 7 | 1016.4 |
| 20260903132651 | 86 | 90 | 10.0 | 17.0 | 0.00 | 0.00 | 0.00 | 7 | 1016.5 |
| 20260903132439 | 86 | 67 | 10.0 | 13.0 | 0.00 | 0.00 | 0.00 | 7 | 1016.4 |
| 20260903131946 | 85 | 67 | 12.0 | 15.0 | 0.00 | 0.00 | 0.00 | 7 | 1016.5 |
| 20260903131544 | 86 | 90 | 9.0 | 15.0 | 0.00 | 0.00 | 0.00 | 7 | 1016.5 |
| 20260903131104 | 87 | 112 | 9.0 | 15.0 | 0.00 | 0.00 | 0.00 | 7 | 1016.5 |
| 20260903130616 | 86 | 67 | 11.0 | 18.0 | 0.00 | 0.00 | 0.00 | 7 | 1016.7 |
| 20260903130147 | 86 | 67 | 9.0 | 12.0 | 0.00 | 0.00 | 0.00 | 7 | 1016.7 |
| 20260903125658 | 86 | 112 | 11.0 | 15.0 | 0.00 | 0.00 | 0.00 | 7 | 1016.7 |
| 20260903125441 | 86 | 67 | 9.0 | 11.0 | 0.00 | 0.00 | 0.00 | 7 | 1016.7 |
| 20260903124951 | 86 | 90 | 9.0 | 13.0 | 0.00 | 0.00 | 0.00 | 7 | 1016.8 |
| 20260903124540 | 85 | 67 | 10.0 | 15.0 | 0.00 | 0.00 | 0.00 | 7 | 1016.8 |
| 20260903124106 | 85 | 90 | 11.0 | 17.0 | 0.00 | 0.00 | 0.00 | 7 | 1016.7 |
| 20260903123630 | 86 | 112 | 12.0 | 15.0 | 0.00 | 0.00 | 0.00 | 7 | 1016.8 |
| 20260903123206 | 86 | 112 | 6.0 | 9.0 | 0.00 | 0.00 | 0.00 | 7 | 1016.8 |
| 20260903122755 | 85 | 90 | 12.0 | 18.0 | 0.00 | 0.00 | 0.00 | 7 | 1016.8 |
| 20260903122259 | 86 | 90 | 8.0 | 12.0 | 0.00 | 0.00 | 0.00 | 7 | 1016.9 |
| 20260903121846 | 85 | 135 | 9.0 | 15.0 | 0.00 | 0.00 | 0.00 | 7 | 1016.9 |
| 20260903121411 | 86 | 90 | 9.0 | 13.0 | 0.00 | 0.00 | 0.00 | 7 | 1017.0 |
| 20260903120946 | 86 | 112 | 10.0 | 13.0 | 0.00 | 0.00 | 0.00 | 7 | 1017.0 |
| 20260903120538 | 86 | 135 | 8.0 | 12.0 | 0.00 | 0.00 | 0.00 | 7 | 1017.1 |
| 20260903120106 | 85 | 90 | 10.0 | 13.0 | 0.00 | 0.00 | 0.00 | 7 | 1017.0 |
| 20260903115657 | 86 | 112 | 8.0 | 10.0 | 0.00 | 0.00 | 0.00 | 7 | 1017.0 |
| 20260903115348 | 85 | 67 | 8.0 | 12.0 | 0.00 | 0.00 | 0.00 | 7 | 1017.0 |
| 20260903114930 | 86 | 112 | 9.0 | 13.0 | 0.00 | 0.00 | 0.00 | 7 | 1017.1 |
| 20260903114641 | 86 | 90 | 9.0 | 13.0 | 0.00 | 0.00 | 0.00 | 7 | 1017.1 |
| 20260903114510 | 86 | 67 | 8.0 | 11.0 | 0.00 | 0.00 | 0.00 | 7 | 1017.1 |
| 20260903114026 | 85 | 90 | 11.0 | 15.0 | 0.00 | 0.00 | 0.00 | 7 | 1017.3 |
| 20260903113642 | 86 | 112 | 7.0 | 10.0 | 0.00 | 0.00 | 0.00 | 7 | 1017.3 |
| 20260903113610 | 86 | 112 | 7.0 | 10.0 | 0.00 | 0.00 | 0.00 | 7 | 1017.3 |
| 20260903113145 | 85 | 67 | 9.0 | 13.0 | 0.00 | 0.00 | 0.00 | 7 | 1017.5 |
| 20260903112651 | 86 | 90 | 6.0 | 12.0 | 0.00 | 0.00 | 0.00 | 7 | 1017.5 |
| 20260903112335 | 86 | 90 | 8.0 | 12.0 | 0.00 | 0.00 | 0.00 | 7 | 1017.5 |
| 20260903111932 | 86 | 90 | 9.0 | 11.0 | 0.00 | 0.00 | 0.00 | 7 | 1017.4 |
| 20260903111458 | 86 | 112 | 8.0 | 11.0 | 0.00 | 0.00 | 0.00 | 7 | 1017.6 |
| 20260903111038 | 86 | 112 | 6.0 | 10.0 | 0.00 | 0.00 | 0.00 | 7 | 1017.5 |
| 20260903110543 | 86 | 112 | 6.0 | 8.0 | 0.00 | 0.00 | 0.00 | 7 | 1017.5 |
| 20260903110117 | 86 | 90 | 8.0 | 10.0 | 0.00 | 0.00 | 0.00 | 7 | 1017.5 |
| 20260903105706 | 86 | 135 | 5.0 | 9.0 | 0.00 | 0.00 | 0.00 | 7 | 1017.7 |
| 20260903105426 | 86 | 135 | 4.0 | 9.0 | 0.00 | 0.00 | 0.00 | 7 | 1017.7 |
| 20260903104939 | 86 | 112 | 5.0 | 8.0 | 0.00 | 0.00 | 0.00 | 7 | 1017.9 |
| 20260903104455 | 85 | 112 | 6.0 | 11.0 | 0.00 | 0.00 | 0.00 | 7 | 1017.8 |
| 20260903104050 | 85 | 135 | 6.0 | 12.0 | 0.00 | 0.00 | 0.00 | 7 | 1018.0 |
| 20260903103638 | 85 | 67 | 4.0 | 8.0 | 0.00 | 0.00 | 0.00 | 7 | 1018.0 |
| 20260903103149 | 84 | 90 | 7.0 | 10.0 | 0.00 | 0.00 | 0.00 | 7 | 1018.2 |
| 20260903102734 | 85 | 112 | 6.0 | 9.0 | 0.00 | 0.00 | 0.00 | 7 | 1018.1 |
| 20260903102312 | 84 | 67 | 6.0 | 8.0 | 0.00 | 0.00 | 0.00 | 7 | 1018.2 |
| 20260903102048 | 84 | 67 | 6.0 | 8.0 | 0.00 | 0.00 | 0.00 | 7 | 1018.1 |
| 20260903101838 | 84 | 112 | 3.0 | 9.0 | 0.00 | 0.00 | 0.00 | 7 | 1018.2 |
| 20260903101437 | 83 | 67 | 6.0 | 9.0 | 0.00 | 0.00 | 0.00 | 7 | 1018.3 |
| 20260903101051 | 85 | 90 | 6.0 | 10.0 | 0.00 | 0.00 | 0.00 | 7 | 1018.2 |
| 20260903101017 | 85 | 90 | 6.0 | 10.0 | 0.00 | 0.00 | 0.00 | 7 | 1018.2 |
| 20260903100552 | 84 | 67 | 6.0 | 10.0 | 0.00 | 0.00 | 0.00 | 7 | 1018.3 |
| 20260903100059 | 84 | 90 | 4.0 | 8.0 | 0.00 | 0.00 | 0.00 | 7 | 1018.2 |
| 20260903100057 | 84 | 90 | 4.0 | 8.0 | 0.00 | 0.00 | 0.00 | 7 | 1018.2 |
| 20260903095716 | 83 | 90 | 7.0 | 9.0 | 0.00 | 0.00 | 0.00 | 7 | 1018.2 |
| 20260903095317 | 84 | 67 | 5.0 | 8.0 | 0.00 | 0.00 | 0.00 | 7 | 1018.3 |
| 20260903095202 | 84 | 112 | 6.0 | 8.0 | 0.00 | 0.00 | 0.00 | 8 | 1018.1 |
| 20260903094840 | 84 | 112 | 3.0 | 6.0 | 0.00 | 0.00 | 0.00 | 7 | 1018.1 |
| 20260903094435 | 84 | 112 | 6.0 | 9.0 | 0.00 | 0.00 | 0.00 | 7 | 1018.2 |
| 20260903094339 | 84 | 112 | 5.0 | 8.0 | 0.00 | 0.00 | 0.00 | 8 | 1018.3 |
| 20260903093956 | 84 | 135 | 6.0 | 10.0 | 0.00 | 0.00 | 0.00 | 7 | 1018.3 |
| 20260903093511 | 84 | 90 | 4.0 | 6.0 | 0.00 | 0.00 | 0.00 | 7 | 1018.3 |
| 20260903093056 | 0 | 0 | 0.0 | 0.0 | 0.00 | 0.00 | 0.00 | 100 | |
| 20260903092648 | 0 | 0 | 0.0 | 0.0 | 0.00 | 0.00 | 0.00 | 100 | |
| 20260903092644 | 0 | 0 | 0.0 | 0.0 | 0.00 | 0.00 | 0.00 | 100 | |
| 20260903092355 | 0 | 0 | 0.0 | 0.0 | 0.00 | 0.00 | 0.00 | 100 | |
| 20260903091935 | 0 | 0 | 0.0 | 0.0 | 0.00 | 0.00 | 0.00 | 100 | |
| 20260903091517 | 0 | 0 | 0.0 | 0.0 | 0.00 | 0.00 | 0.00 | 100 | |
| 20260903091032 | 0 | 0 | 0.0 | 0.0 | 0.00 | 0.00 | 0.00 | 100 | |
| 20260903090615 | 0 | 0 | 0.0 | 0.0 | 0.00 | 0.00 | 0.00 | 100 | |
| 20260903090150 | 0 | 0 | 0.0 | 0.0 | 0.00 | 0.00 | 0.00 | 100 | |
| 20260903085655 | 83 | 112 | 3.0 | 4.0 | 0.00 | 0.00 | 0.00 | 8 | 1018.1 |
| 20260903085441 | 83 | 112 | 3.0 | 4.0 | 0.00 | 0.00 | 0.00 | 8 | 1018.1 |
| 20260903085008 | 83 | 112 | 3.0 | 4.0 | 0.00 | 0.00 | 0.00 | 8 | 1018.0 |
| 20260903084526 | 83 | 112 | 3.0 | 4.0 | 0.00 | 0.00 | 0.00 | 8 | 1018.0 |
| 20260903084050 | 82 | 90 | 0.0 | 2.0 | 0.00 | 0.00 | 0.00 | 8 | 1018.0 |
| 20260903083619 | 82 | 112 | 0.0 | 2.0 | 0.00 | 0.00 | 0.00 | 8 | 1017.9 |
| 20260903083140 | 82 | 112 | 0.0 | 2.0 | 0.00 | 0.00 | 0.00 | 8 | 1018.0 |
| 20260903082705 | 82 | 67 | 1.0 | 3.0 | 0.00 | 0.00 | 0.00 | 8 | 1017.9 |
| 20260903082230 | 81 | 45 | 1.0 | 4.0 | 0.00 | 0.00 | 0.00 | 8 | 1017.8 |
| 20260903082007 | 81 | 45 | 0.0 | 2.0 | 0.00 | 0.00 | 0.00 | 8 | 1017.8 |
| 20260903081737 | 81 | 0 | 0.0 | 1.0 | 0.00 | 0.00 | 0.00 | 8 | 1017.8 |
| 20260903081240 | 82 | 0 | 0.0 | 2.0 | 0.00 | 0.00 | 0.00 | 8 | 1017.9 |
| 20260903081204 | 81 | 112 | 0.0 | 2.0 | 0.00 | 0.00 | 0.00 | 8 | 1017.9 |
| 20260903080838 | 80 | 0 | 0.0 | 1.0 | 0.00 | 0.00 | 0.00 | 8 | 1017.9 |
| 20260903080429 | 80 | 0 | 0.0 | 1.0 | 0.00 | 0.00 | 0.00 | 8 | 1018.0 |
| 20260903080317 | 80 | 112 | 2.0 | 3.0 | 0.00 | 0.00 | 0.00 | 8 | 1018.1 |
| 20260903080022 | 80 | 112 | 2.0 | 3.0 | 0.00 | 0.00 | 0.00 | 8 | 1017.8 |
| 20260903075536 | 0 | 0 | 0.0 | 0.0 | 0.00 | 0.00 | 0.00 | 100 | |
| 20260903075416 | 0 | 0 | 0.0 | 0.0 | 0.00 | 0.00 | 0.00 | 100 | |
| 20260903075041 | 80 | 180 | 0.0 | 1.0 | 0.00 | 0.00 | 0.00 | 8 | 1018.0 |
| 20260903074629 | 80 | 180 | 0.0 | 1.0 | 0.00 | 0.00 | 0.00 | 8 | 1018.1 |
| 20260903074532 | 80 | 180 | 0.0 | 1.0 | 0.00 | 0.00 | 0.00 | 8 | 1017.9 |
| 20260903074214 | 80 | 180 | 0.0 | 1.0 | 0.00 | 0.00 | 0.00 | 8 | 1018.0 |
| 20260903073705 | 79 | 0 | 0.0 | 0.0 | 0.00 | 0.00 | 0.00 | 8 | 1017.9 |
| 20260903073257 | 79 | 180 | 0.0 | 1.0 | 0.00 | 0.00 | 0.00 | 8 | 1017.9 |
| 20260903072851 | 79 | 0 | 0.0 | 0.0 | 0.00 | 0.00 | 0.00 | 8 | 1018.0 |
| 20260903072757 | 79 | 0 | 0.0 | 0.0 | 0.00 | 0.00 | 0.00 | 8 | 1018.0 |
| 20260903072307 | 78 | 0 | 0.0 | 1.0 | 0.00 | 0.00 | 0.00 | 9 | 1018.1 |
| 20260903071906 | 78 | 0 | 0.0 | 0.0 | 0.00 | 0.00 | 0.00 | 9 | 1017.9 |
| 20260903071421 | 77 | 0 | 0.0 | 0.0 | 0.00 | 0.00 | 0.00 | 9 | 1017.9 |
| 20260903070952 | 76 | 270 | 0.0 | 1.0 | 0.00 | 0.00 | 0.00 | 9 | 1017.8 |
| 20260903070459 | 76 | 0 | 0.0 | 0.0 | 0.00 | 0.00 | 0.00 | 9 | 1017.7 |
| 20260903070047 | 0 | 0 | 0.0 | 0.0 | 0.00 | 0.00 | 0.00 | 100 | |
| 20260903065548 | 0 | 0 | 0.0 | 0.0 | 0.00 | 0.00 | 0.00 | 100 | |
| 20260903065051 | 74 | 270 | 1.0 | 2.0 | 0.00 | 0.00 | 0.00 | 9 | 1017.8 |
| 20260903064639 | 74 | 270 | 1.0 | 2.0 | 0.00 | 0.00 | 0.00 | 9 | 1017.6 |
| 20260903064208 | 74 | 270 | 1.0 | 2.0 | 0.00 | 0.00 | 0.00 | 9 | 1017.6 |
| 20260903063711 | 74 | 270 | 1.0 | 2.0 | 0.00 | 0.00 | 0.00 | 9 | 1017.6 |
| 20260903063249 | 0 | 0 | 0.0 | 0.0 | 0.00 | 0.00 | 0.00 | 100 | |
| 20260903062838 | 0 | 0 | 0.0 | 0.0 | 0.00 | 0.00 | 0.00 | 100 | |
| 20260903062416 | 73 | 270 | 1.0 | 2.0 | 0.00 | 0.00 | 0.00 | 9 | 1017.5 |
| 20260903061921 | 73 | 270 | 1.0 | 2.0 | 0.00 | 0.00 | 0.00 | 9 | 1017.6 |
| 20260903061424 | 73 | 270 | 2.0 | 2.0 | 0.00 | 0.00 | 0.00 | 9 | 1017.4 |
| 20260903060930 | 0 | 0 | 0.0 | 0.0 | 0.00 | 0.00 | 0.00 | 100 | |
| 20260903060439 | 72 | 0 | 0.0 | 0.0 | 0.00 | 0.00 | 0.00 | 9 | 1017.4 |
| 20260903060013 | 72 | 0 | 0.0 | 0.0 | 0.00 | 0.00 | 0.00 | 9 | 1017.3 |
| 20260903055518 | 72 | 0 | 0.0 | 0.0 | 0.00 | 0.00 | 0.00 | 9 | 1017.2 |
| 20260903055109 | 72 | 0 | 0.0 | 0.0 | 0.00 | 0.00 | 0.00 | 9 | 1017.2 |
| 20260903054709 | 73 | 0 | 0.0 | 0.0 | 0.00 | 0.00 | 0.00 | 9 | 1017.3 |
| 20260903054255 | 0 | 0 | 0.0 | 0.0 | 0.00 | 0.00 | 0.00 | 100 | |
| 20260903053813 | 72 | 0 | 0.0 | 0.0 | 0.00 | 0.00 | 0.00 | 9 | 1017.0 |
| 20260903053404 | 72 | 0 | 0.0 | 0.0 | 0.00 | 0.00 | 0.00 | 9 | 1017.1 |
| 20260903052949 | 0 | 0 | 0.0 | 0.0 | 0.00 | 0.00 | 0.00 | 100 | |
| 20260903052451 | 0 | 0 | 0.0 | 0.0 | 0.00 | 0.00 | 0.00 | 100 | |
| 20260903052044 | 0 | 0 | 0.0 | 0.0 | 0.00 | 0.00 | 0.00 | 100 | |
| 20260903051601 | 0 | 0 | 0.0 | 0.0 | 0.00 | 0.00 | 0.00 | 100 | |
| 20260903051139 | 0 | 0 | 0.0 | 0.0 | 0.00 | 0.00 | 0.00 | 100 | |
| 20260903050703 | 73 | 0 | 0.0 | 0.0 | 0.00 | 0.00 | 0.00 | 9 | 1016.9 |
| 20260903050210 | 73 | 0 | 0.0 | 0.0 | 0.00 | 0.00 | 0.00 | 9 | 1016.8 |
| 20260903045758 | 73 | 0 | 0.0 | 0.0 | 0.00 | 0.00 | 0.00 | 9 | 1016.7 |
| 20260903045313 | 73 | 0 | 0.0 | 0.0 | 0.00 | 0.00 | 0.00 | 9 | 1016.8 |
| 20260903044832 | 0 | 0 | 0.0 | 0.0 | 0.00 | 0.00 | 0.00 | 100 | |
| 20260903044345 | 0 | 0 | 0.0 | 0.0 | 0.00 | 0.00 | 0.00 | 100 | |
| 20260903043929 | 0 | 0 | 0.0 | 0.0 | 0.00 | 0.00 | 0.00 | 100 | |
| 20260903043439 | 0 | 0 | 0.0 | 0.0 | 0.00 | 0.00 | 0.00 | 100 | |
| 20260903043001 | 0 | 0 | 0.0 | 0.0 | 0.00 | 0.00 | 0.00 | 100 | |
| 20260903042544 | 73 | 0 | 0.0 | 0.0 | 0.00 | 0.00 | 0.00 | 9 | 1016.5 |
| 20260903042135 | 73 | 0 | 0.0 | 0.0 | 0.00 | 0.00 | 0.00 | 9 | 1016.7 |
| 20260903041704 | 73 | 0 | 0.0 | 0.0 | 0.00 | 0.00 | 0.00 | 9 | 1016.4 |
| 20260903041303 | 0 | 0 | 0.0 | 0.0 | 0.00 | 0.00 | 0.00 | 100 | |
| 20260903040829 | 0 | 0 | 0.0 | 0.0 | 0.00 | 0.00 | 0.00 | 100 | |
| 20260903040355 | 0 | 0 | 0.0 | 0.0 | 0.00 | 0.00 | 0.00 | 100 | |
| 20260903035921 | 0 | 0 | 0.0 | 0.0 | 0.00 | 0.00 | 0.00 | 100 | |
| 20260903035457 | 0 | 0 | 0.0 | 0.0 | 0.00 | 0.00 | 0.00 | 100 | |
| 20260903035043 | 74 | 0 | 0.0 | 0.0 | 0.00 | 0.00 | 0.00 | 9 | 1016.5 |
| 20260903034609 | 74 | 0 | 0.0 | 0.0 | 0.00 | 0.00 | 0.00 | 9 | 1016.4 |
| 20260903034143 | 0 | 0 | 0.0 | 0.0 | 0.00 | 0.00 | 0.00 | 100 | |
| 20260903033729 | 0 | 0 | 0.0 | 0.0 | 0.00 | 0.00 | 0.00 | 100 | |
| 20260903033321 | 0 | 0 | 0.0 | 0.0 | 0.00 | 0.00 | 0.00 | 100 | |
| 20260903032829 | 0 | 0 | 0.0 | 0.0 | 0.00 | 0.00 | 0.00 | 100 | |
| 20260903032556 | 0 | 0 | 0.0 | 0.0 | 0.00 | 0.00 | 0.00 | 100 | |
| 20260903032411 | 0 | 0 | 0.0 | 0.0 | 0.00 | 0.00 | 0.00 | 100 | |
| 20260903031915 | 0 | 0 | 0.0 | 0.0 | 0.00 | 0.00 | 0.00 | 100 | |
| 20260903031621 | 0 | 0 | 0.0 | 0.0 | 0.00 | 0.00 | 0.00 | 100 | |
| 20260903031432 | 0 | 0 | 0.0 | 0.0 | 0.00 | 0.00 | 0.00 | 100 | |
| 20260903031009 | 0 | 0 | 0.0 | 0.0 | 0.00 | 0.00 | 0.00 | 100 | |
| 20260903030623 | 0 | 0 | 0.0 | 0.0 | 0.00 | 0.00 | 0.00 | 100 | |
| 20260903030549 | 0 | 0 | 0.0 | 0.0 | 0.00 | 0.00 | 0.00 | 100 | |
| 20260903030124 | 0 | 0 | 0.0 | 0.0 | 0.00 | 0.00 | 0.00 | 100 | |
| 20260903025629 | 0 | 0 | 0.0 | 0.0 | 0.00 | 0.00 | 0.00 | 100 | |
| 20260903025439 | 0 | 0 | 0.0 | 0.0 | 0.00 | 0.00 | 0.00 | 100 | |
| 20260903025305 | 0 | 0 | 0.0 | 0.0 | 0.00 | 0.00 | 0.00 | 100 | |
| 20260903024858 | 0 | 0 | 0.0 | 0.0 | 0.00 | 0.00 | 0.00 | 100 | |
| 20260903024539 | 0 | 0 | 0.0 | 0.0 | 0.00 | 0.00 | 0.00 | 100 | |
| 20260903024432 | 0 | 0 | 0.0 | 0.0 | 0.00 | 0.00 | 0.00 | 100 | |
| 20260903024008 | 0 | 0 | 0.0 | 0.0 | 0.00 | 0.00 | 0.00 | 100 | |
| 20260903023639 | 0 | 0 | 0.0 | 0.0 | 0.00 | 0.00 | 0.00 | 100 | |
| 20260903023556 | 0 | 0 | 0.0 | 0.0 | 0.00 | 0.00 | 0.00 | 100 | |
| 20260903023148 | 0 | 0 | 0.0 | 0.0 | 0.00 | 0.00 | 0.00 | 100 | |
| 20260903022657 | 0 | 0 | 0.0 | 0.0 | 0.00 | 0.00 | 0.00 | 100 | |
| 20260903022320 | 0 | 0 | 0.0 | 0.0 | 0.00 | 0.00 | 0.00 | 100 | |
| 20260903021918 | 0 | 0 | 0.0 | 0.0 | 0.00 | 0.00 | 0.00 | 100 | |
| 20260903021431 | 0 | 0 | 0.0 | 0.0 | 0.00 | 0.00 | 0.00 | 100 | |
| 20260903021007 | 0 | 0 | 0.0 | 0.0 | 0.00 | 0.00 | 0.00 | 100 | |
| 20260903020548 | 0 | 0 | 0.0 | 0.0 | 0.00 | 0.00 | 0.00 | 100 | |
| 20260903020123 | 0 | 0 | 0.0 | 0.0 | 0.00 | 0.00 | 0.00 | 100 | |
| 20260903015628 | 0 | 0 | 0.0 | 0.0 | 0.00 | 0.00 | 0.00 | 100 | |
| 20260903015447 | 0 | 0 | 0.0 | 0.0 | 0.00 | 0.00 | 0.00 | 100 | |
| 20260903015358 | 0 | 0 | 0.0 | 0.0 | 0.00 | 0.00 | 0.00 | 100 | |
| 20260903015044 | 0 | 0 | 0.0 | 0.0 | 0.00 | 0.00 | 0.00 | 100 | |
| 20260903014640 | 0 | 0 | 0.0 | 0.0 | 0.00 | 0.00 | 0.00 | 100 | |
| 20260903014503 | 0 | 0 | 0.0 | 0.0 | 0.00 | 0.00 | 0.00 | 100 | |
| 20260903014201 | 0 | 0 | 0.0 | 0.0 | 0.00 | 0.00 | 0.00 | 100 | |
| 20260903013711 | 0 | 0 | 0.0 | 0.0 | 0.00 | 0.00 | 0.00 | 100 | |
| 20260903013643 | 0 | 0 | 0.0 | 0.0 | 0.00 | 0.00 | 0.00 | 100 | |
| 20260903013217 | 0 | 0 | 0.0 | 0.0 | 0.00 | 0.00 | 0.00 | 100 | |
| 20260903012753 | 0 | 0 | 0.0 | 0.0 | 0.00 | 0.00 | 0.00 | 100 | |
| 20260903012751 | 0 | 0 | 0.0 | 0.0 | 0.00 | 0.00 | 0.00 | 100 | |
| 20260903012623 | 0 | 0 | 0.0 | 0.0 | 0.00 | 0.00 | 0.00 | 100 | |
| 20260903012439 | 0 | 0 | 0.0 | 0.0 | 0.00 | 0.00 | 0.00 | 100 | |
| 20260903011943 | 0 | 0 | 0.0 | 0.0 | 0.00 | 0.00 | 0.00 | 100 | |
| 20260903011649 | 0 | 0 | 0.0 | 0.0 | 0.00 | 0.00 | 0.00 | 100 | |
| 20260903011500 | 0 | 0 | 0.0 | 0.0 | 0.00 | 0.00 | 0.00 | 100 | |
| 20260903011035 | 0 | 0 | 0.0 | 0.0 | 0.00 | 0.00 | 0.00 | 100 | |
| 20260903010649 | 0 | 0 | 0.0 | 0.0 | 0.00 | 0.00 | 0.00 | 100 | |
| 20260903010617 | 0 | 0 | 0.0 | 0.0 | 0.00 | 0.00 | 0.00 | 100 | |
| 20260903010152 | 0 | 0 | 0.0 | 0.0 | 0.00 | 0.00 | 0.00 | 100 | |
| 20260903005657 | 0 | 0 | 0.0 | 0.0 | 0.00 | 0.00 | 0.00 | 100 | |
| 20260903005331 | 0 | 0 | 0.0 | 0.0 | 0.00 | 0.00 | 0.00 | 100 | |
| 20260903004932 | 0 | 0 | 0.0 | 0.0 | 0.00 | 0.00 | 0.00 | 100 | |
| 20260903004531 | 0 | 0 | 0.0 | 0.0 | 0.00 | 0.00 | 0.00 | 100 | |
| 20260903004436 | 0 | 0 | 0.0 | 0.0 | 0.00 | 0.00 | 0.00 | 100 | |
| 20260903004054 | 0 | 0 | 0.0 | 0.0 | 0.00 | 0.00 | 0.00 | 100 | |
| 20260903003609 | 0 | 0 | 0.0 | 0.0 | 0.00 | 0.00 | 0.00 | 100 | |
| 20260903003154 | 0 | 0 | 0.0 | 0.0 | 0.00 | 0.00 | 0.00 | 100 | |
| 20260903002740 | 0 | 0 | 0.0 | 0.0 | 0.00 | 0.00 | 0.00 | 100 | |
| 20260903002609 | 0 | 0 | 0.0 | 0.0 | 0.00 | 0.00 | 0.00 | 100 | |
| 20260903002156 | 0 | 0 | 0.0 | 0.0 | 0.00 | 0.00 | 0.00 | 100 | |
| 20260903001744 | 0 | 0 | 0.0 | 0.0 | 0.00 | 0.00 | 0.00 | 100 | |
| 20260903001312 | 0 | 0 | 0.0 | 0.0 | 0.00 | 0.00 | 0.00 | 100 | |
| 20260903000910 | 0 | 0 | 0.0 | 0.0 | 0.00 | 0.00 | 0.00 | 100 | |
| 20260903000427 | 0 | 0 | 0.0 | 0.0 | 0.00 | 0.00 | 0.00 | 100 | |
| 20260903000002 | 0 | 0 | 0.0 | 0.0 | 0.00 | 0.00 | 0.00 | 100 | |
| 20260902235844 | 0 | 0 | 0.0 | 0.0 | 0.00 | 0.00 | 0.00 | 100 | |
| 20260902235828 | 0 | 0 | 0.0 | 0.0 | 0.00 | 0.00 | 0.00 | 100 | |
| 20260902235443 | 0 | 0 | 0.0 | 0.0 | 0.00 | 0.00 | 0.00 | 100 | |
| 20260902234954 | 0 | 0 | 0.0 | 0.0 | 0.00 | 0.00 | 0.00 | 100 | |
| 20260902234538 | 0 | 0 | 0.0 | 0.0 | 0.00 | 0.00 | 0.00 | 100 | |
| 20260902234137 | 0 | 0 | 0.0 | 0.0 | 0.00 | 0.00 | 0.00 | 100 | |
| 20260902234111 | 0 | 0 | 0.0 | 0.0 | 0.00 | 0.00 | 0.00 | 100 | |
| 20260902233707 | 0 | 0 | 0.0 | 0.0 | 0.00 | 0.00 | 0.00 | 100 | |
| 20260902233244 | 79 | 0 | 0.0 | 0.0 | 0.00 | 0.00 | 0.00 | 9 | 1016.8 |
| 20260902233202 | 79 | 0 | 0.0 | 0.0 | 0.00 | 0.00 | 0.00 | 9 | 1017.1 |
| 20260902232759 | 79 | 0 | 0.0 | 0.0 | 0.00 | 0.00 | 0.00 | 9 | 1017.1 |
| 20260902232329 | 79 | 0 | 0.0 | 0.0 | 0.00 | 0.00 | 0.00 | 9 | 1017.0 |
| 20260902232235 | 79 | 112 | 0.0 | 1.0 | 0.00 | 0.00 | 0.00 | 9 | 1017.0 |
| 20260902231859 | 79 | 112 | 0.0 | 1.0 | 0.00 | 0.00 | 0.00 | 9 | 1017.0 |
| 20260902231424 | 79 | 112 | 2.0 | 3.0 | 0.00 | 0.00 | 0.00 | 9 | 1016.9 |
| 20260902231250 | 79 | 112 | 2.0 | 3.0 | 0.00 | 0.00 | 0.00 | 9 | 1016.9 |
| 20260902230957 | 0 | 0 | 0.0 | 0.0 | 0.00 | 0.00 | 0.00 | 100 | |
| 20260902230439 | 79 | 112 | 2.0 | 2.0 | 0.00 | 0.00 | 0.00 | 9 | 1016.8 |
| 20260902230026 | 79 | 112 | 2.0 | 2.0 | 0.00 | 0.00 | 0.00 | 9 | 1016.7 |
| 20260902225600 | 79 | 112 | 2.0 | 2.0 | 0.00 | 0.00 | 0.00 | 9 | 1016.8 |
| 20260902225212 | 0 | 0 | 0.0 | 0.0 | 0.00 | 0.00 | 0.00 | 100 | |
| 20260902224753 | 0 | 0 | 0.0 | 0.0 | 0.00 | 0.00 | 0.00 | 100 | |
| 20260902224713 | 0 | 0 | 0.0 | 0.0 | 0.00 | 0.00 | 0.00 | 100 | |
| 20260902224342 | 0 | 0 | 0.0 | 0.0 | 0.00 | 0.00 | 0.00 | 100 | |
| 20260902223917 | 0 | 0 | 0.0 | 0.0 | 0.00 | 0.00 | 0.00 | 100 | |
| 20260902223820 | 0 | 0 | 0.0 | 0.0 | 0.00 | 0.00 | 0.00 | 100 | |
| 20260902223439 | 0 | 0 | 0.0 | 0.0 | 0.00 | 0.00 | 0.00 | 100 | |
| 20260902223019 | 0 | 0 | 0.0 | 0.0 | 0.00 | 0.00 | 0.00 | 100 | |
| 20260902222919 | 0 | 0 | 0.0 | 0.0 | 0.00 | 0.00 | 0.00 | 100 | |
| 20260902222622 | 0 | 0 | 0.0 | 0.0 | 0.00 | 0.00 | 0.00 | 100 | |
| 20260902222203 | 79 | 112 | 3.0 | 4.0 | 0.00 | 0.00 | 0.00 | 9 | 1016.8 |
| 20260902221921 | 79 | 112 | 3.0 | 4.0 | 0.00 | 0.00 | 0.00 | 9 | 1016.8 |
| 20260902221721 | 79 | 112 | 3.0 | 4.0 | 0.00 | 0.00 | 0.00 | 9 | 1016.9 |
| 20260902221310 | 79 | 112 | 3.0 | 4.0 | 0.00 | 0.00 | 0.00 | 9 | 1016.8 |
| 20260902221111 | 79 | 112 | 3.0 | 6.0 | 0.00 | 0.00 | 0.00 | 9 | 1016.7 |
| 20260902220824 | 79 | 112 | 3.0 | 6.0 | 0.00 | 0.00 | 0.00 | 9 | 1016.7 |
| 20260902220349 | 79 | 112 | 3.0 | 4.0 | 0.00 | 0.00 | 0.00 | 9 | 1016.8 |
| 20260902220157 | 79 | 112 | 3.0 | 4.0 | 0.00 | 0.00 | 0.00 | 9 | 1016.8 |
| 20260902215908 | 79 | 112 | 2.0 | 3.0 | 0.00 | 0.00 | 0.00 | 9 | 1016.9 |
| 20260902215447 | 79 | 90 | 4.0 | 6.0 | 0.00 | 0.00 | 0.00 | 9 | 1016.8 |
| 20260902215210 | 0 | 0 | 0.0 | 0.0 | 0.00 | 0.00 | 0.00 | 100 | |
| 20260902215038 | 0 | 0 | 0.0 | 0.0 | 0.00 | 0.00 | 0.00 | 100 | |
| 20260902214542 | 0 | 0 | 0.0 | 0.0 | 0.00 | 0.00 | 0.00 | 100 | |
| 20260902214249 | 0 | 0 | 0.0 | 0.0 | 0.00 | 0.00 | 0.00 | 100 | |
| 20260902214134 | 0 | 0 | 0.0 | 0.0 | 0.00 | 0.00 | 0.00 | 100 | |
| 20260902213647 | 0 | 0 | 0.0 | 0.0 | 0.00 | 0.00 | 0.00 | 100 | |
| 20260902213403 | 0 | 0 | 0.0 | 0.0 | 0.00 | 0.00 | 0.00 | 100 | |
| 20260902213237 | 0 | 0 | 0.0 | 0.0 | 0.00 | 0.00 | 0.00 | 100 | |
| 20260902212819 | 0 | 0 | 0.0 | 0.0 | 0.00 | 0.00 | 0.00 | 100 | |
| 20260902212414 | 0 | 0 | 0.0 | 0.0 | 0.00 | 0.00 | 0.00 | 100 | |
| 20260902212354 | 0 | 0 | 0.0 | 0.0 | 0.00 | 0.00 | 0.00 | 100 | |
| 20260902211909 | 0 | 0 | 0.0 | 0.0 | 0.00 | 0.00 | 0.00 | 100 | |
| 20260902211525 | 0 | 0 | 0.0 | 0.0 | 0.00 | 0.00 | 0.00 | 100 | |
| 20260902211443 | 0 | 0 | 0.0 | 0.0 | 0.00 | 0.00 | 0.00 | 100 | |
| 20260902211039 | 0 | 0 | 0.0 | 0.0 | 0.00 | 0.00 | 0.00 | 100 | |
| 20260902210654 | 79 | 90 | 3.0 | 6.0 | 0.00 | 0.00 | 0.00 | 9 | 1016.6 |
| 20260902210619 | 79 | 90 | 3.0 | 6.0 | 0.00 | 0.00 | 0.00 | 9 | 1016.7 |
| 20260902210154 | 79 | 90 | 3.0 | 6.0 | 0.00 | 0.00 | 0.00 | 9 | 1016.7 |
| 20260902205701 | 79 | 90 | 3.0 | 6.0 | 0.00 | 0.00 | 0.00 | 9 | 1016.7 |
| 20260902205659 | 79 | 90 | 3.0 | 6.0 | 0.00 | 0.00 | 0.00 | 9 | 1016.7 |
| 20260902205134 | 79 | 112 | 3.0 | 3.0 | 0.00 | 0.00 | 0.00 | 9 | 1016.7 |
| 20260902204846 | 79 | 90 | 2.0 | 3.0 | 0.00 | 0.00 | 0.00 | 9 | 1016.8 |
| 20260902204716 | 79 | 90 | 3.0 | 3.0 | 0.00 | 0.00 | 0.00 | 9 | 1016.5 |
| 20260902204232 | 79 | 112 | 4.0 | 6.0 | 0.00 | 0.00 | 0.00 | 9 | 1016.6 |
| 20260902203849 | 79 | 112 | 3.0 | 4.0 | 0.00 | 0.00 | 0.00 | 9 | 1016.6 |
| 20260902203815 | 79 | 112 | 3.0 | 4.0 | 0.00 | 0.00 | 0.00 | 9 | 1016.6 |
| 20260902203350 | 79 | 90 | 3.0 | 6.0 | 0.00 | 0.00 | 0.00 | 9 | 1016.5 |
| 20260902202858 | 79 | 90 | 3.0 | 4.0 | 0.00 | 0.00 | 0.00 | 8 | 1016.5 |
| 20260902202855 | 79 | 90 | 3.0 | 4.0 | 0.00 | 0.00 | 0.00 | 8 | 1016.5 |
| 20260902202344 | 79 | 90 | 3.0 | 4.0 | 0.00 | 0.00 | 0.00 | 8 | 1016.6 |
| 20260902201900 | 79 | 112 | 3.0 | 6.0 | 0.00 | 0.00 | 0.00 | 8 | 1016.4 |
| 20260902201433 | 79 | 112 | 5.0 | 6.0 | 0.00 | 0.00 | 0.00 | 8 | 1016.3 |
| 20260902201030 | 79 | 90 | 3.0 | 6.0 | 0.00 | 0.00 | 0.00 | 8 | 1016.4 |
| 20260902200610 | 79 | 90 | 6.0 | 8.0 | 0.00 | 0.00 | 0.00 | 8 | 1016.2 |
| 20260902200145 | 79 | 90 | 5.0 | 6.0 | 0.00 | 0.00 | 0.00 | 8 | 1016.2 |
| 20260902195650 | 79 | 67 | 3.0 | 6.0 | 0.00 | 0.00 | 0.00 | 8 | 1016.1 |
| 20260902195445 | 79 | 90 | 3.0 | 6.0 | 0.00 | 0.00 | 0.00 | 8 | 1016.1 |
| 20260902195025 | 79 | 90 | 3.0 | 4.0 | 0.00 | 0.00 | 0.00 | 9 | 1016.0 |
| 20260902194606 | 79 | 90 | 3.0 | 6.0 | 0.00 | 0.00 | 0.00 | 8 | 1015.9 |
| 20260902194122 | 79 | 112 | 3.0 | 4.0 | 0.00 | 0.00 | 0.00 | 8 | 1015.8 |
| 20260902193705 | 79 | 90 | 3.0 | 4.0 | 0.00 | 0.00 | 0.00 | 8 | 1015.7 |
| 20260902193240 | 79 | 112 | 3.0 | 6.0 | 0.00 | 0.00 | 0.00 | 9 | 1015.5 |
| 20260902192745 | 79 | 90 | 3.0 | 6.0 | 0.00 | 0.00 | 0.00 | 9 | 1015.7 |
| 20260902192457 | 79 | 90 | 5.0 | 6.0 | 0.00 | 0.00 | 0.00 | 9 | 1015.6 |
| 20260902192426 | 79 | 90 | 5.0 | 6.0 | 0.00 | 0.00 | 0.00 | 9 | 1015.6 |
| 20260902191930 | 79 | 112 | 5.0 | 6.0 | 0.00 | 0.00 | 0.00 | 9 | 1015.4 |
| 20260902191512 | 79 | 90 | 6.0 | 9.0 | 0.00 | 0.00 | 0.00 | 9 | 1015.2 |
| 20260902191028 | 79 | 112 | 4.0 | 8.0 | 0.00 | 0.00 | 0.00 | 9 | 1015.4 |
| 20260902190645 | 79 | 90 | 4.0 | 6.0 | 0.00 | 0.00 | 0.00 | 9 | 1015.2 |
| 20260902190611 | 79 | 90 | 4.0 | 6.0 | 0.00 | 0.00 | 0.00 | 9 | 1015.2 |
| 20260902190146 | 79 | 112 | 6.0 | 8.0 | 0.00 | 0.00 | 0.00 | 9 | 1015.0 |
| 20260902185654 | 79 | 90 | 5.0 | 8.0 | 0.00 | 0.00 | 0.00 | 9 | 1015.0 |
| 20260902185651 | 79 | 90 | 5.0 | 8.0 | 0.00 | 0.00 | 0.00 | 9 | 1015.0 |
| 20260902185336 | 79 | 135 | 5.0 | 8.0 | 0.00 | 0.00 | 0.00 | 9 | 1015.0 |
| 20260902185249 | 79 | 67 | 5.0 | 6.0 | 0.00 | 0.00 | 0.00 | 9 | 1014.9 |
| 20260902184908 | 79 | 112 | 6.0 | 9.0 | 0.00 | 0.00 | 0.00 | 9 | 1014.8 |
| 20260902184448 | 79 | 90 | 5.0 | 9.0 | 0.00 | 0.00 | 0.00 | 9 | 1014.9 |
| 20260902184356 | 79 | 90 | 4.0 | 6.0 | 0.00 | 0.00 | 0.00 | 9 | 1014.8 |
| 20260902184012 | 79 | 90 | 4.0 | 8.0 | 0.00 | 0.00 | 0.00 | 9 | 1014.7 |
| 20260902183530 | 79 | 112 | 4.0 | 6.0 | 0.00 | 0.00 | 0.00 | 9 | 1014.9 |
| 20260902183112 | 79 | 112 | 6.0 | 8.0 | 0.00 | 0.00 | 0.00 | 9 | 1014.8 |
| 20260902182700 | 79 | 112 | 7.0 | 10.0 | 0.00 | 0.00 | 0.00 | 8 | 1014.6 |
| 20260902182658 | 79 | 112 | 7.0 | 10.0 | 0.00 | 0.00 | 0.00 | 8 | 1014.6 |
| 20260902182426 | 79 | 112 | 6.0 | 10.0 | 0.00 | 0.00 | 0.00 | 8 | 1014.8 |
| 20260902182245 | 79 | 135 | 6.0 | 8.0 | 0.00 | 0.00 | 0.00 | 8 | 1014.9 |
| 20260902182001 | 79 | 112 | 8.0 | 10.0 | 0.00 | 0.00 | 0.00 | 8 | 1014.7 |
| 20260902181516 | 79 | 90 | 6.0 | 10.0 | 0.00 | 0.00 | 0.00 | 8 | 1014.9 |
| 20260902181042 | 80 | 90 | 7.0 | 9.0 | 0.00 | 0.00 | 0.00 | 8 | 1015.0 |
| 20260902180554 | 80 | 112 | 7.0 | 9.0 | 0.00 | 0.00 | 0.00 | 8 | 1015.0 |
| 20260902180522 | 80 | 112 | 7.0 | 9.0 | 0.00 | 0.00 | 0.00 | 8 | 1015.0 |
| 20260902180106 | 80 | 90 | 6.0 | 9.0 | 0.00 | 0.00 | 0.00 | 8 | 1014.9 |
| 20260902175656 | 80 | 90 | 4.0 | 6.0 | 0.00 | 0.00 | 0.00 | 8 | 1015.0 |
| 20260902175409 | 80 | 112 | 6.0 | 8.0 | 0.00 | 0.00 | 0.00 | 8 | 1014.8 |
| 20260902175404 | 80 | 90 | 7.0 | 10.0 | 0.00 | 0.00 | 0.00 | 8 | 1014.9 |
| 20260902174909 | 80 | 90 | 6.0 | 10.0 | 0.00 | 0.00 | 0.00 | 8 | 1014.8 |
| 20260902174520 | 80 | 90 | 6.0 | 10.0 | 0.00 | 0.00 | 0.00 | 8 | 1014.9 |
| 20260902174436 | 80 | 67 | 8.0 | 11.0 | 0.00 | 0.00 | 0.00 | 8 | 1014.7 |
| 20260902174034 | 80 | 90 | 7.0 | 11.0 | 0.00 | 0.00 | 0.00 | 8 | 1014.8 |
| 20260902173649 | 80 | 112 | 9.0 | 13.0 | 0.00 | 0.00 | 0.00 | 8 | 1014.7 |
| 20260902173614 | 80 | 112 | 9.0 | 13.0 | 0.00 | 0.00 | 0.00 | 8 | 1014.7 |
| 20260902173149 | 81 | 90 | 9.0 | 11.0 | 0.00 | 0.00 | 0.00 | 8 | 1014.5 |
| 20260902172656 | 81 | 90 | 9.0 | 13.0 | 0.00 | 0.00 | 0.00 | 8 | 1014.8 |
| 20260902172654 | 81 | 90 | 9.0 | 13.0 | 0.00 | 0.00 | 0.00 | 8 | 1014.8 |
| 20260902172552 | 81 | 90 | 9.0 | 13.0 | 0.00 | 0.00 | 0.00 | 8 | 1014.8 |
| 20260902172056 | 81 | 112 | 9.0 | 13.0 | 0.00 | 0.00 | 0.00 | 8 | 1014.6 |
| 20260902171706 | 81 | 135 | 8.0 | 11.0 | 0.00 | 0.00 | 0.00 | 8 | 1014.5 |
| 20260902171608 | 81 | 90 | 9.0 | 13.0 | 0.00 | 0.00 | 0.00 | 8 | 1014.5 |
| 20260902171121 | 81 | 67 | 9.0 | 13.0 | 0.00 | 0.00 | 0.00 | 8 | 1014.6 |
| 20260902170741 | 81 | 112 | 8.0 | 12.0 | 0.00 | 0.00 | 0.00 | 8 | 1014.5 |
| 20260902170704 | 81 | 112 | 8.0 | 12.0 | 0.00 | 0.00 | 0.00 | 8 | 1014.5 |
| 20260902170239 | 81 | 67 | 10.0 | 15.0 | 0.00 | 0.00 | 0.00 | 8 | 1014.4 |
| 20260902165744 | 82 | 112 | 7.0 | 13.0 | 0.00 | 0.00 | 0.00 | 8 | 1014.5 |
| 20260902165408 | 82 | 67 | 12.0 | 15.0 | 0.00 | 0.00 | 0.00 | 8 | 1014.3 |
| 20260902164913 | 82 | 67 | 10.0 | 15.0 | 0.00 | 0.00 | 0.00 | 8 | 1014.5 |
| 20260902164440 | 82 | 135 | 10.0 | 15.0 | 0.00 | 0.00 | 0.00 | 8 | 1014.4 |
| 20260902164038 | 82 | 90 | 11.0 | 15.0 | 0.00 | 0.00 | 0.00 | 8 | 1014.3 |
| 20260902163618 | 82 | 90 | 12.0 | 15.0 | 0.00 | 0.00 | 0.00 | 8 | 1014.3 |
| 20260902163152 | 83 | 90 | 9.0 | 15.0 | 0.00 | 0.00 | 0.00 | 8 | 1014.4 |
| 20260902162658 | 82 | 90 | 10.0 | 15.0 | 0.00 | 0.00 | 0.00 | 8 | 1014.3 |
| 20260902162340 | 83 | 90 | 9.0 | 13.0 | 0.00 | 0.00 | 0.00 | 8 | 1014.3 |
| 20260902161906 | 83 | 67 | 9.0 | 15.0 | 0.00 | 0.00 | 0.00 | 8 | 1014.3 |
| 20260902161436 | 83 | 90 | 9.0 | 13.0 | 0.00 | 0.00 | 0.00 | 8 | 1014.3 |
| 20260902161002 | 83 | 90 | 9.0 | 12.0 | 0.00 | 0.00 | 0.00 | 8 | 1014.3 |
| 20260902160600 | 83 | 90 | 11.0 | 15.0 | 0.00 | 0.00 | 0.00 | 8 | 1014.4 |
| 20260902160117 | 83 | 90 | 9.0 | 15.0 | 0.00 | 0.00 | 0.00 | 8 | 1014.5 |
| 20260902155652 | 83 | 90 | 10.0 | 15.0 | 0.00 | 0.00 | 0.00 | 8 | 1014.3 |
| 20260902155356 | 83 | 135 | 11.0 | 17.0 | 0.00 | 0.00 | 0.00 | 8 | 1014.4 |
| 20260902154937 | 84 | 90 | 9.0 | 13.0 | 0.00 | 0.00 | 0.00 | 8 | 1014.4 |
| 20260902154551 | 83 | 112 | 12.0 | 15.0 | 0.00 | 0.00 | 0.00 | 8 | 1014.4 |
| 20260902154519 | 83 | 112 | 12.0 | 15.0 | 0.00 | 0.00 | 0.00 | 8 | 1014.4 |
| 20260902154034 | 84 | 67 | 10.0 | 13.0 | 0.00 | 0.00 | 0.00 | 8 | 1014.5 |
| 20260902153653 | 84 | 67 | 9.0 | 13.0 | 0.00 | 0.00 | 0.00 | 8 | 1014.5 |
| 20260902153617 | 84 | 67 | 9.0 | 13.0 | 0.00 | 0.00 | 0.00 | 8 | 1014.5 |
| 20260902153153 | 84 | 90 | 12.0 | 15.0 | 0.00 | 0.00 | 0.00 | 8 | 1014.5 |
| 20260902152659 | 84 | 90 | 9.0 | 15.0 | 0.00 | 0.00 | 0.00 | 8 | 1014.6 |
| 20260902152350 | 84 | 67 | 9.0 | 15.0 | 0.00 | 0.00 | 0.00 | 8 | 1014.7 |
| 20260902151931 | 84 | 90 | 9.0 | 13.0 | 0.00 | 0.00 | 0.00 | 8 | 1014.7 |
| 20260902151642 | 83 | 67 | 13.0 | 15.0 | 0.00 | 0.00 | 0.00 | 8 | 1014.5 |
| 20260902151512 | 83 | 67 | 13.0 | 15.0 | 0.00 | 0.00 | 0.00 | 8 | 1014.7 |
| 20260902151028 | 84 | 90 | 12.0 | 17.0 | 0.00 | 0.00 | 0.00 | 8 | 1014.5 |
| 20260902150644 | 84 | 90 | 10.0 | 17.0 | 0.00 | 0.00 | 0.00 | 8 | 1014.4 |
| 20260902150611 | 84 | 90 | 10.0 | 17.0 | 0.00 | 0.00 | 0.00 | 8 | 1014.4 |
| 20260902150146 | 84 | 90 | 8.0 | 11.0 | 0.00 | 0.00 | 0.00 | 8 | 1014.6 |
| 20260902145652 | 84 | 112 | 11.0 | 19.0 | 0.00 | 0.00 | 0.00 | 8 | 1014.6 |
| 20260902145311 | 84 | 90 | 12.0 | 18.0 | 0.00 | 0.00 | 0.00 | 7 | 1014.6 |
| 20260902145306 | 84 | 90 | 10.0 | 13.0 | 0.00 | 0.00 | 0.00 | 7 | 1014.5 |
| 20260902144850 | 84 | 112 | 12.0 | 17.0 | 0.00 | 0.00 | 0.00 | 8 | 1014.6 |
| 20260902144435 | 84 | 90 | 13.0 | 17.0 | 0.00 | 0.00 | 0.00 | 8 | 1014.7 |
| 20260902144006 | 84 | 112 | 11.0 | 15.0 | 0.00 | 0.00 | 0.00 | 7 | 1014.8 |
| 20260902143604 | 83 | 90 | 11.0 | 15.0 | 0.00 | 0.00 | 0.00 | 8 | 1014.9 |
| 20260902143547 | 84 | 90 | 10.0 | 19.0 | 0.00 | 0.00 | 0.00 | 7 | 1014.7 |
| 20260902143121 | 83 | 90 | 11.0 | 17.0 | 0.00 | 0.00 | 0.00 | 8 | 1014.8 |
| 20260902142657 | 84 | 112 | 11.0 | 15.0 | 0.00 | 0.00 | 0.00 | 7 | 1014.8 |
| 20260902142655 | 84 | 112 | 11.0 | 15.0 | 0.00 | 0.00 | 0.00 | 7 | 1014.8 |
| 20260902142314 | 84 | 67 | 9.0 | 17.0 | 0.00 | 0.00 | 0.00 | 7 | 1014.8 |
| 20260902142256 | 84 | 67 | 9.0 | 15.0 | 0.00 | 0.00 | 0.00 | 7 | 1014.8 |
| 20260902141843 | 84 | 90 | 13.0 | 20.0 | 0.00 | 0.00 | 0.00 | 7 | 1014.8 |